Location: Apple Hill Campground
(44.2915°N, 71.6726°W)
Time: 17:33:17
(UTC+00:00)

Envisat - Pass Details

Date: 05 October 2024
Orbit: 761 x 763 km, 98.3° (Epoch: 07 November)

Event Time Altitude Azimuth Distance (km) Brightness Sun altitude
Rises 06:32:18 0° 32° (NNE) 3,235 7.0 -43.0°
Reaches altitude 10° 06:35:48 10° 57° (ENE) 2,303 6.1 -42.6°
Enters shadow 06:36:42 12° 67° (ENE) 2,151 5.8 -42.5°
